Time,TemperatureF,DewpointF,PressureIn,WindDirection,WindDirectionDegrees,WindSpeedMPH,WindSpeedGustMPH,Humidity,HourlyPrecipIn,Conditions,Clouds,dailyrainin,SoftwareType,DateUTC
2013-03-09 00:03:00,36.1,5.4,30.12,North,5,4.0,8.3,27,0.00,,,-99.99,FreeWX-Wi 1.02,2013-03-09 05:03:00,
2013-03-09 00:08:00,35.8,5.2,30.12,North,5,4.0,6.3,27,0.00,,,-99.99,FreeWX-Wi 1.02,2013-03-09 05:08:00,
2013-03-09 00:13:00,35.8,5.2,30.12,North,4,4.0,8.1,27,0.00,,,-99.99,FreeWX-Wi 1.02,2013-03-09 05:13:00,
2013-03-09 00:18:00,36.0,5.2,30.12,North,5,4.0,7.6,27,0.00,,,-99.99,FreeWX-Wi 1.02,2013-03-09 05:18:00,
2013-03-09 00:23:00,35.8,5.2,30.12,North,5,4.0,8.3,27,0.00,,,-99.99,FreeWX-Wi 1.02,2013-03-09 05:23:00,
2013-03-09 00:28:00,35.8,5.2,30.12,North,2,4.0,8.3,27,0.00,,,-99.99,FreeWX-Wi 1.02,2013-03-09 05:28:00,
2013-03-09 00:33:00,35.6,5.0,30.12,North,0,4.0,5.8,27,0.00,,,-99.99,FreeWX-Wi 1.02,2013-03-09 05:33:00,
2013-03-09 00:38:00,35.8,5.2,30.12,North,2,4.0,7.2,27,0.00,,,-99.99,FreeWX-Wi 1.02,2013-03-09 05:38:00,
2013-03-09 00:43:00,35.8,5.2,30.15,North,1,4.0,7.2,27,0.00,,,-99.99,FreeWX-Wi 1.02,2013-03-09 05:43:00,
2013-03-09 00:48:00,35.4,4.8,30.15,North,0,4.0,6.3,27,0.00,,,-99.99,FreeWX-Wi 1.02,2013-03-09 05:48:00,
2013-03-09 00:53:00,35.6,5.0,30.15,North,359,4.0,8.7,27,0.00,,,-99.99,FreeWX-Wi 1.02,2013-03-09 05:53:00,
2013-03-09 00:58:00,35.4,4.8,30.15,North,359,4.0,8.3,27,0.00,,,-99.99,FreeWX-Wi 1.02,2013-03-09 05:58:00,
2013-03-09 01:03:00,35.4,4.8,30.15,North,358,4.0,8.1,27,0.00,,,-99.99,FreeWX-Wi 1.02,2013-03-09 06:03:00,
2013-03-09 01:08:00,35.4,4.8,30.15,North,359,4.0,6.3,27,0.00,,,-99.99,FreeWX-Wi 1.02,2013-03-09 06:08:00,
2013-03-09 01:13:00,35.2,4.6,30.15,North,359,4.0,7.6,27,0.00,,,-99.99,FreeWX-Wi 1.02,2013-03-09 06:13:00,
2013-03-09 01:18:00,35.4,4.8,30.15,North,359,4.0,8.3,27,0.00,,,-99.99,FreeWX-Wi 1.02,2013-03-09 06:18:00,
2013-03-09 01:23:00,35.2,4.6,30.15,North,358,4.0,6.7,27,0.00,,,-99.99,FreeWX-Wi 1.02,2013-03-09 06:23:00,
2013-03-09 01:28:00,35.1,4.5,30.12,North,357,4.0,8.3,27,0.00,,,-99.99,FreeWX-Wi 1.02,2013-03-09 06:28:00,
2013-03-09 01:33:00,35.1,6.8,30.12,North,358,4.0,7.2,30,0.00,,,-99.99,FreeWX-Wi 1.02,2013-03-09 06:33:00,
2013-03-09 01:38:00,34.7,6.4,30.12,North,354,4.0,5.8,30,0.00,,,-99.99,FreeWX-Wi 1.02,2013-03-09 06:38:00,
2013-03-09 01:43:00,34.7,6.4,30.12,North,356,4.0,6.3,30,0.00,,,-99.99,FreeWX-Wi 1.02,2013-03-09 06:43:00,
2013-03-09 01:48:00,34.7,6.4,30.12,North,356,4.0,7.6,30,0.00,,,-99.99,FreeWX-Wi 1.02,2013-03-09 06:48:00,
2013-03-09 01:53:00,34.9,4.3,30.12,North,359,4.0,8.1,27,0.00,,,-99.99,FreeWX-Wi 1.02,2013-03-09 06:53:00,
2013-03-09 01:58:00,34.7,4.1,30.12,North,359,4.0,8.7,27,0.00,,,-99.99,FreeWX-Wi 1.02,2013-03-09 06:58:00,
2013-03-09 02:03:00,34.5,4.1,30.12,North,0,4.0,6.7,27,0.00,,,-99.99,FreeWX-Wi 1.02,2013-03-09 07:03:00,
2013-03-09 02:08:00,34.5,6.3,30.12,North,0,4.0,8.3,30,0.00,,,-99.99,FreeWX-Wi 1.02,2013-03-09 07:08:00,
2013-03-09 02:13:00,34.9,6.6,30.12,North,359,4.0,7.6,30,0.00,,,-99.99,FreeWX-Wi 1.02,2013-03-09 07:13:00,
2013-03-09 02:18:00,34.5,6.3,30.12,North,359,4.0,6.3,30,0.00,,,-99.99,FreeWX-Wi 1.02,2013-03-09 07:18:00,
2013-03-09 02:23:00,34.5,4.1,30.12,North,0,4.0,6.7,27,0.00,,,-99.99,FreeWX-Wi 1.02,2013-03-09 07:23:00,
2013-03-09 02:28:00,34.3,3.9,30.12,North,1,4.0,5.8,27,0.00,,,-99.99,FreeWX-Wi 1.02,2013-03-09 07:28:00,
2013-03-09 02:33:00,34.0,5.9,30.12,North,1,4.0,5.8,30,0.00,,,-99.99,FreeWX-Wi 1.02,2013-03-09 07:33:00,
2013-03-09 02:38:00,33.8,5.7,30.12,North,1,4.0,6.3,30,0.00,,,-99.99,FreeWX-Wi 1.02,2013-03-09 07:38:00,
2013-03-09 02:43:00,34.3,6.1,30.12,North,5,4.0,6.3,30,0.00,,,-99.99,FreeWX-Wi 1.02,2013-03-09 07:43:00,
2013-03-09 02:48:00,34.5,4.1,30.12,North,6,4.0,7.2,27,0.00,,,-99.99,FreeWX-Wi 1.02,2013-03-09 07:48:00,
2013-03-09 02:53:00,34.0,3.6,30.12,North,6,4.0,5.8,27,0.00,,,-99.99,FreeWX-Wi 1.02,2013-03-09 07:53:00,
2013-03-09 02:58:00,34.3,3.9,30.12,North,5,4.0,5.8,27,0.00,,,-99.99,FreeWX-Wi 1.02,2013-03-09 07:58:00,
2013-03-09 03:03:00,34.0,3.6,30.12,North,4,4.0,5.8,27,0.00,,,-99.99,FreeWX-Wi 1.02,2013-03-09 08:03:00,
2013-03-09 03:08:00,33.8,5.7,30.12,North,1,4.0,8.1,30,0.00,,,-99.99,FreeWX-Wi 1.02,2013-03-09 08:08:00,
2013-03-09 03:13:00,33.8,5.7,30.12,North,359,3.0,7.6,30,0.00,,,-99.99,FreeWX-Wi 1.02,2013-03-09 08:13:00,
2013-03-09 03:18:00,33.8,5.7,30.12,North,357,3.0,7.2,30,0.00,,,-99.99,FreeWX-Wi 1.02,2013-03-09 08:18:00,
2013-03-09 03:23:00,33.4,5.4,30.12,North,355,3.0,5.8,30,0.00,,,-99.99,FreeWX-Wi 1.02,2013-03-09 08:23:00,
2013-03-09 03:28:00,33.6,5.5,30.12,North,355,3.0,6.7,30,0.00,,,-99.99,FreeWX-Wi 1.02,2013-03-09 08:28:00,
2013-03-09 03:33:00,33.6,5.5,30.12,North,353,3.0,6.3,30,0.00,,,-99.99,FreeWX-Wi 1.02,2013-03-09 08:33:00,
2013-03-09 03:38:00,33.8,5.7,30.12,North,354,3.0,8.1,30,0.00,,,-99.99,FreeWX-Wi 1.02,2013-03-09 08:38:00,
2013-03-09 03:43:00,33.6,5.5,30.12,North,354,3.0,6.3,30,0.00,,,-99.99,FreeWX-Wi 1.02,2013-03-09 08:43:00,
2013-03-09 03:48:00,33.6,5.5,30.12,North,354,3.0,5.4,30,0.00,,,-99.99,FreeWX-Wi 1.02,2013-03-09 08:48:00,
2013-03-09 03:53:00,33.8,5.7,30.12,North,356,4.0,7.6,30,0.00,,,-99.99,FreeWX-Wi 1.02,2013-03-09 08:53:00,
2013-03-09 03:58:00,33.8,3.4,30.12,North,358,4.0,8.3,27,0.00,,,-99.99,FreeWX-Wi 1.02,2013-03-09 08:58:00,
2013-03-09 04:03:00,33.6,5.5,30.12,North,357,4.0,5.8,30,0.00,,,-99.99,FreeWX-Wi 1.02,2013-03-09 09:03:00,
2013-03-09 04:08:00,34.0,3.6,30.12,North,0,4.0,6.3,27,0.00,,,-99.99,FreeWX-Wi 1.02,2013-03-09 09:08:00,
2013-03-09 04:13:00,33.8,3.4,30.15,North,0,4.0,6.3,27,0.00,,,-99.99,FreeWX-Wi 1.02,2013-03-09 09:13:00,
2013-03-09 04:18:00,33.6,4.1,30.15,North,358,4.0,6.3,28,0.00,,,-99.99,FreeWX-Wi 1.02,2013-03-09 09:18:00,
2013-03-09 04:23:00,33.8,3.4,30.15,North,356,4.0,7.2,27,0.00,,,-99.99,FreeWX-Wi 1.02,2013-03-09 09:23:00,
2013-03-09 04:28:00,33.8,3.4,30.15,North,357,4.0,6.3,27,0.00,,,-99.99,FreeWX-Wi 1.02,2013-03-09 09:28:00,
2013-03-09 04:33:00,33.8,3.4,30.15,North,357,4.0,5.8,27,0.00,,,-99.99,FreeWX-Wi 1.02,2013-03-09 09:33:00,
2013-03-09 04:38:00,33.6,4.1,30.15,North,354,4.0,6.7,28,0.00,,,-99.99,FreeWX-Wi 1.02,2013-03-09 09:38:00,
2013-03-09 04:43:00,33.6,4.1,30.15,North,354,4.0,6.3,28,0.00,,,-99.99,FreeWX-Wi 1.02,2013-03-09 09:43:00,
2013-03-09 04:48:00,33.6,4.1,30.15,North,356,4.0,6.3,28,0.00,,,-99.99,FreeWX-Wi 1.02,2013-03-09 09:48:00,
2013-03-09 04:53:00,33.4,3.9,30.15,North,356,4.0,5.4,28,0.00,,,-99.99,FreeWX-Wi 1.02,2013-03-09 09:53:00,
2013-03-09 04:58:00,33.3,3.7,30.15,North,356,3.0,6.3,28,0.00,,,-99.99,FreeWX-Wi 1.02,2013-03-09 09:58:00,
2013-03-09 05:03:00,33.3,3.7,30.15,North,357,3.0,5.8,28,0.00,,,-99.99,FreeWX-Wi 1.02,2013-03-09 10:03:00,
2013-03-09 05:08:00,33.1,3.6,30.15,North,357,3.0,6.3,28,0.00,,,-99.99,FreeWX-Wi 1.02,2013-03-09 10:08:00,
2013-03-09 05:13:00,33.6,4.1,30.15,North,355,3.0,5.8,28,0.00,,,-99.99,FreeWX-Wi 1.02,2013-03-09 10:13:00,
2013-03-09 05:18:00,33.1,3.6,30.15,North,357,3.0,5.4,28,0.00,,,-99.99,FreeWX-Wi 1.02,2013-03-09 10:18:00,
2013-03-09 05:23:00,32.9,3.4,30.15,North,358,3.0,6.7,28,0.00,,,-99.99,FreeWX-Wi 1.02,2013-03-09 10:23:00,
2013-03-09 05:28:00,33.3,3.7,30.18,North,357,3.0,6.3,28,0.00,,,-99.99,FreeWX-Wi 1.02,2013-03-09 10:28:00,
2013-03-09 05:33:00,33.3,3.7,30.18,North,359,3.0,5.8,28,0.00,,,-99.99,FreeWX-Wi 1.02,2013-03-09 10:33:00,
2013-03-09 05:38:00,32.7,3.2,30.18,North,358,3.0,4.0,28,0.00,,,-99.99,FreeWX-Wi 1.02,2013-03-09 10:38:00,
2013-03-09 05:43:00,32.5,3.0,30.18,North,0,3.0,5.8,28,0.00,,,-99.99,FreeWX-Wi 1.02,2013-03-09 10:43:00,
2013-03-09 05:48:00,32.7,3.2,30.18,North,1,3.0,5.4,28,0.00,,,-99.99,FreeWX-Wi 1.02,2013-03-09 10:48:00,
2013-03-09 05:53:00,32.5,3.0,30.18,North,3,3.0,5.4,28,0.00,,,-99.99,FreeWX-Wi 1.02,2013-03-09 10:53:00,
2013-03-09 05:58:00,32.5,3.0,30.18,North,2,3.0,4.5,28,0.00,,,-99.99,FreeWX-Wi 1.02,2013-03-09 10:58:00,
2013-03-09 06:03:00,32.5,4.6,30.18,North,1,3.0,5.8,30,0.00,,,-99.99,FreeWX-Wi 1.02,2013-03-09 11:03:00,
2013-03-09 06:08:00,32.7,3.2,30.18,North,2,3.0,4.9,28,0.00,,,-99.99,FreeWX-Wi 1.02,2013-03-09 11:08:00,
2013-03-09 06:13:00,32.5,4.6,30.18,North,359,3.0,6.7,30,0.00,,,-99.99,FreeWX-Wi 1.02,2013-03-09 11:13:00,
2013-03-09 06:18:00,32.5,4.6,30.18,North,355,3.0,8.1,30,0.00,,,-99.99,FreeWX-Wi 1.02,2013-03-09 11:18:00,
2013-03-09 06:23:00,32.7,4.8,30.18,North,353,3.0,6.3,30,0.00,,,-99.99,FreeWX-Wi 1.02,2013-03-09 11:23:00,
2013-03-09 06:28:00,32.5,3.0,30.18,North,352,3.0,5.8,28,0.00,,,-99.99,FreeWX-Wi 1.02,2013-03-09 11:28:00,
2013-03-09 06:33:00,32.5,3.0,30.18,North,352,3.0,5.4,28,0.00,,,-99.99,FreeWX-Wi 1.02,2013-03-09 11:33:00,
2013-03-09 06:38:00,32.9,3.4,30.18,North,355,3.0,6.3,28,0.00,,,-99.99,FreeWX-Wi 1.02,2013-03-09 11:38:00,
2013-03-09 06:43:00,33.4,3.9,30.18,North,353,3.0,5.8,28,0.00,,,-99.99,FreeWX-Wi 1.02,2013-03-09 11:43:00,
2013-03-09 06:48:00,33.8,3.4,30.18,North,354,3.0,5.8,27,0.00,,,-99.99,FreeWX-Wi 1.02,2013-03-09 11:48:00,
2013-03-09 06:53:00,33.8,3.4,30.18,North,356,3.0,5.8,27,0.00,,,-99.99,FreeWX-Wi 1.02,2013-03-09 11:53:00,
2013-03-09 06:58:00,34.0,3.6,30.18,North,356,3.0,10.1,27,0.00,,,-99.99,FreeWX-Wi 1.02,2013-03-09 11:58:00,
2013-03-09 07:03:00,34.2,3.7,30.18,North,358,3.0,5.8,27,0.00,,,-99.99,FreeWX-Wi 1.02,2013-03-09 12:03:00,
2013-03-09 07:08:00,34.9,4.3,30.18,North,359,3.0,6.3,27,0.00,,,-99.99,FreeWX-Wi 1.02,2013-03-09 12:08:00,
2013-03-09 07:13:00,35.1,3.7,30.18,North,3,4.0,6.3,26,0.00,,,-99.99,FreeWX-Wi 1.02,2013-03-09 12:13:00,
2013-03-09 07:18:00,36.3,4.8,30.18,North,4,4.0,6.3,26,0.00,,,-99.99,FreeWX-Wi 1.02,2013-03-09 12:18:00,
2013-03-09 07:23:00,37.6,5.0,30.18,North,4,4.0,5.8,25,0.00,,,-99.99,FreeWX-Wi 1.02,2013-03-09 12:23:00,
2013-03-09 07:28:00,36.3,4.8,30.21,North,4,4.0,5.8,26,0.00,,,-99.99,FreeWX-Wi 1.02,2013-03-09 12:28:00,
2013-03-09 07:33:00,36.0,4.5,30.21,North,3,4.0,5.8,26,0.00,,,-99.99,FreeWX-Wi 1.02,2013-03-09 12:33:00,
2013-03-09 07:38:00,36.7,5.0,30.21,North,4,4.0,6.3,26,0.00,,,-99.99,FreeWX-Wi 1.02,2013-03-09 12:38:00,
2013-03-09 07:43:00,36.5,5.0,30.21,North,5,4.0,6.3,26,0.00,,,-99.99,FreeWX-Wi 1.02,2013-03-09 12:43:00,
2013-03-09 07:48:00,36.3,4.8,30.21,North,3,4.0,5.8,26,0.00,,,-99.99,FreeWX-Wi 1.02,2013-03-09 12:48:00,
2013-03-09 07:53:00,37.6,5.0,30.21,North,7,4.0,5.8,25,0.00,,,-99.99,FreeWX-Wi 1.02,2013-03-09 12:53:00,
2013-03-09 07:58:00,38.5,5.7,30.21,North,7,3.0,5.8,25,0.00,,,-99.99,FreeWX-Wi 1.02,2013-03-09 12:58:00,
2013-03-09 08:03:00,38.1,5.4,30.21,North,7,4.0,6.7,25,0.00,,,-99.99,FreeWX-Wi 1.02,2013-03-09 13:03:00,
2013-03-09 08:08:00,37.8,5.2,30.21,North,8,4.0,8.3,25,0.00,,,-99.99,FreeWX-Wi 1.02,2013-03-09 13:08:00,
2013-03-09 08:13:00,37.8,5.2,30.21,North,11,4.0,6.7,25,0.00,,,-99.99,FreeWX-Wi 1.02,2013-03-09 13:13:00,
2013-03-09 08:18:00,37.6,5.0,30.21,NNE,16,4.0,8.1,25,0.00,,,-99.99,FreeWX-Wi 1.02,2013-03-09 13:18:00,
2013-03-09 08:23:00,37.8,5.2,30.21,NNE,14,4.0,6.3,25,0.00,,,-99.99,FreeWX-Wi 1.02,2013-03-09 13:23:00,
2013-03-09 08:28:00,38.7,5.9,30.21,NNE,12,4.0,5.8,25,0.00,,,-99.99,FreeWX-Wi 1.02,2013-03-09 13:28:00,
2013-03-09 08:33:00,39.6,6.6,30.21,NNE,14,4.0,6.3,25,0.00,,,-99.99,FreeWX-Wi 1.02,2013-03-09 13:33:00,
2013-03-09 08:38:00,40.1,7.2,30.21,North,10,4.0,6.3,25,0.00,,,-99.99,FreeWX-Wi 1.02,2013-03-09 13:38:00,
2013-03-09 08:43:00,42.3,9.0,30.21,North,10,4.0,6.3,25,0.00,,,-99.99,FreeWX-Wi 1.02,2013-03-09 13:43:00,
2013-03-09 08:48:00,43.3,9.0,30.21,North,7,3.0,5.4,24,0.00,,,-99.99,FreeWX-Wi 1.02,2013-03-09 13:48:00,
2013-03-09 08:53:00,42.8,8.6,30.21,North,11,3.0,5.4,24,0.00,,,-99.99,FreeWX-Wi 1.02,2013-03-09 13:53:00,
2013-03-09 08:58:00,42.4,9.1,30.21,North,7,3.0,8.7,25,0.00,,,-99.99,FreeWX-Wi 1.02,2013-03-09 13:58:00,
2013-03-09 09:03:00,43.2,8.8,30.21,North,4,3.0,5.8,24,0.00,,,-99.99,FreeWX-Wi 1.02,2013-03-09 14:03:00,
2013-03-09 09:08:00,44.1,9.7,30.21,North,5,4.0,6.3,24,0.00,,,-99.99,FreeWX-Wi 1.02,2013-03-09 14:08:00,
2013-03-09 09:13:00,44.8,10.2,30.21,North,4,4.0,5.4,24,0.00,,,-99.99,FreeWX-Wi 1.02,2013-03-09 14:13:00,
2013-03-09 09:18:00,45.9,11.1,30.21,North,2,4.0,5.4,24,0.00,,,-99.99,FreeWX-Wi 1.02,2013-03-09 14:18:00,
2013-03-09 09:23:00,45.9,11.1,30.21,North,0,4.0,6.3,24,0.00,,,-99.99,FreeWX-Wi 1.02,2013-03-09 14:23:00,
2013-03-09 09:28:00,45.5,10.8,30.21,North,359,3.0,7.6,24,0.00,,,-99.99,FreeWX-Wi 1.02,2013-03-09 14:28:00,
2013-03-09 09:33:00,45.9,11.1,30.21,North,0,4.0,6.3,24,0.00,,,-99.99,FreeWX-Wi 1.02,2013-03-09 14:33:00,
2013-03-09 09:38:00,45.1,10.6,30.21,North,355,3.0,7.6,24,0.00,,,-99.99,FreeWX-Wi 1.02,2013-03-09 14:38:00,
2013-03-09 09:44:00,47.3,11.5,30.21,North,351,3.0,5.8,23,0.00,,,-99.99,FreeWX-Wi 1.02,2013-03-09 14:44:00,
2013-03-09 09:49:00,45.7,10.9,30.21,North,356,3.0,6.3,24,0.00,,,-99.99,FreeWX-Wi 1.02,2013-03-09 14:49:00,
2013-03-09 09:54:00,45.3,10.8,30.21,North,359,3.0,6.3,24,0.00,,,-99.99,FreeWX-Wi 1.02,2013-03-09 14:54:00,
2013-03-09 09:59:00,44.4,9.9,30.21,North,3,3.0,5.8,24,0.00,,,-99.99,FreeWX-Wi 1.02,2013-03-09 14:59:00,
2013-03-09 10:04:00,45.9,11.1,30.21,North,4,4.0,7.2,24,0.00,,,-99.99,FreeWX-Wi 1.02,2013-03-09 15:04:00,
2013-03-09 10:09:00,45.0,10.4,30.21,North,5,3.0,5.4,24,0.00,,,-99.99,FreeWX-Wi 1.02,2013-03-09 15:09:00,
2013-03-09 10:14:00,44.2,9.7,30.21,North,6,3.0,5.4,24,0.00,,,-99.99,FreeWX-Wi 1.02,2013-03-09 15:14:00,
2013-03-09 10:19:00,45.3,10.8,30.21,North,6,3.0,5.8,24,0.00,,,-99.99,FreeWX-Wi 1.02,2013-03-09 15:19:00,
2013-03-09 10:24:00,44.1,9.7,30.21,North,7,4.0,6.7,24,0.00,,,-99.99,FreeWX-Wi 1.02,2013-03-09 15:24:00,
2013-03-09 10:29:00,43.5,9.1,30.21,North,6,3.0,6.3,24,0.00,,,-99.99,FreeWX-Wi 1.02,2013-03-09 15:29:00,
2013-03-09 10:34:00,43.0,8.8,30.21,North,4,3.0,7.2,24,0.00,,,-99.99,FreeWX-Wi 1.02,2013-03-09 15:34:00,
2013-03-09 10:39:00,43.7,9.3,30.21,North,4,4.0,9.2,24,0.00,,,-99.99,FreeWX-Wi 1.02,2013-03-09 15:39:00,
2013-03-09 10:46:00,47.3,11.5,30.24,North,358,4.0,6.3,23,0.00,,,-99.99,FreeWX-Wi 1.02,2013-03-09 15:46:00,
2013-03-09 10:51:00,47.7,11.7,30.24,North,355,3.0,7.2,23,0.04,,,-99.99,FreeWX-Wi 1.02,2013-03-09 15:51:00,
2013-03-09 10:56:00,48.2,12.2,30.24,North,356,3.0,4.0,23,0.04,,,-99.99,FreeWX-Wi 1.02,2013-03-09 15:56:00,
2013-03-09 11:01:00,48.6,12.4,30.24,North,353,3.0,6.3,23,0.04,,,-99.99,FreeWX-Wi 1.02,2013-03-09 16:01:00,
2013-03-09 11:06:00,48.4,12.4,30.24,North,353,3.0,6.3,23,0.04,,,-99.99,FreeWX-Wi 1.02,2013-03-09 16:06:00,
2013-03-09 11:11:00,48.0,12.0,30.24,North,355,4.0,8.3,23,0.04,,,-99.99,FreeWX-Wi 1.02,2013-03-09 16:11:00,
2013-03-09 11:16:00,48.2,12.2,30.24,North,1,4.0,7.6,23,0.04,,,-99.99,FreeWX-Wi 1.02,2013-03-09 16:16:00,
2013-03-09 11:21:00,49.6,13.5,30.24,North,6,4.0,6.3,23,0.04,,,-99.99,FreeWX-Wi 1.02,2013-03-09 16:21:00,
2013-03-09 11:26:00,50.7,14.4,30.24,North,8,4.0,5.8,23,0.04,,,-99.99,FreeWX-Wi 1.02,2013-03-09 16:26:00,
2013-03-09 11:31:00,50.5,14.2,30.24,NNE,12,4.0,7.6,23,0.04,,,-99.99,FreeWX-Wi 1.02,2013-03-09 16:31:00,
2013-03-09 11:36:00,51.8,14.2,30.24,NNE,13,4.0,6.3,22,0.04,,,-99.99,FreeWX-Wi 1.02,2013-03-09 16:36:00,
2013-03-09 11:41:00,51.1,14.5,30.21,NNE,12,3.0,5.4,23,0.04,,,-99.99,FreeWX-Wi 1.02,2013-03-09 16:41:00,
2013-03-09 11:46:00,50.0,13.6,30.21,North,6,3.0,4.0,23,0.04,,,-99.99,FreeWX-Wi 1.02,2013-03-09 16:46:00,
2013-03-09 11:51:00,53.2,15.4,30.21,North,358,3.0,5.4,22,0.00,,,-99.99,FreeWX-Wi 1.02,2013-03-09 16:51:00,
2013-03-09 11:56:00,50.0,13.6,30.21,North,358,3.0,6.3,23,0.00,,,-99.99,FreeWX-Wi 1.02,2013-03-09 16:56:00,
2013-03-09 12:01:00,49.5,13.3,30.21,North,0,3.0,5.8,23,0.00,,,-99.99,FreeWX-Wi 1.02,2013-03-09 17:01:00,
2013-03-09 12:06:00,51.4,14.9,30.21,North,3,3.0,5.4,23,0.00,,,-99.99,FreeWX-Wi 1.02,2013-03-09 17:06:00,
2013-03-09 12:11:00,51.8,14.2,30.21,North,2,3.0,5.4,22,0.00,,,-99.99,FreeWX-Wi 1.02,2013-03-09 17:11:00,
2013-03-09 12:16:00,48.7,12.6,30.21,North,10,3.0,6.3,23,0.00,,,-99.99,FreeWX-Wi 1.02,2013-03-09 17:16:00,
2013-03-09 12:21:00,50.5,14.2,30.21,NNE,12,3.0,4.0,23,0.04,,,-99.99,FreeWX-Wi 1.02,2013-03-09 17:21:00,
2013-03-09 12:26:00,56.8,17.4,30.21,North,8,3.0,4.9,21,0.04,,,-99.99,FreeWX-Wi 1.02,2013-03-09 17:26:00,
2013-03-09 12:31:00,55.4,16.2,30.21,North,0,3.0,5.4,21,0.04,,,-99.99,FreeWX-Wi 1.02,2013-03-09 17:31:00,
2013-03-09 12:36:00,54.0,16.0,30.21,North,356,2.0,4.0,22,0.04,,,-99.99,FreeWX-Wi 1.02,2013-03-09 17:36:00,
2013-03-09 12:41:00,54.0,16.0,30.21,North,356,3.0,6.3,22,0.08,,,-99.99,FreeWX-Wi 1.02,2013-03-09 17:41:00,
2013-03-09 12:46:00,54.0,16.0,30.21,North,358,3.0,6.3,22,0.08,,,-99.99,FreeWX-Wi 1.02,2013-03-09 17:46:00,
2013-03-09 12:51:00,53.6,15.6,30.21,North,359,3.0,5.4,22,0.08,,,-99.99,FreeWX-Wi 1.02,2013-03-09 17:51:00,
2013-03-09 12:56:00,53.1,15.3,30.21,North,5,3.0,6.3,22,0.08,,,-99.99,FreeWX-Wi 1.02,2013-03-09 17:56:00,
2013-03-09 13:01:00,52.7,14.9,30.21,NNE,12,3.0,5.4,22,0.08,,,-99.99,FreeWX-Wi 1.02,2013-03-09 18:01:00,
2013-03-09 13:06:00,51.4,14.9,30.21,NNE,16,4.0,5.4,23,0.08,,,-99.99,FreeWX-Wi 1.02,2013-03-09 18:06:00,
2013-03-09 13:12:00,53.1,15.3,30.21,NNE,15,3.0,4.9,22,0.08,,,-99.99,FreeWX-Wi 1.02,2013-03-09 18:12:00,
2013-03-09 13:17:00,52.9,15.1,30.21,NNE,13,3.0,6.3,22,0.08,,,-99.99,FreeWX-Wi 1.02,2013-03-09 18:17:00,
2013-03-09 13:22:00,55.6,16.3,30.21,North,9,3.0,4.5,21,0.04,,,-99.99,FreeWX-Wi 1.02,2013-03-09 18:22:00,
2013-03-09 13:27:00,55.2,17.1,30.21,North,5,3.0,4.9,22,0.04,,,-99.99,FreeWX-Wi 1.02,2013-03-09 18:27:00,
2013-03-09 13:32:00,56.3,16.9,30.21,North,4,3.0,4.9,21,0.04,,,-99.99,FreeWX-Wi 1.02,2013-03-09 18:32:00,
2013-03-09 13:37:00,56.3,16.9,30.21,North,2,3.0,6.3,21,0.00,,,-99.99,FreeWX-Wi 1.02,2013-03-09 18:37:00,
2013-03-09 13:42:00,51.6,15.1,30.21,North,1,3.0,5.8,23,0.00,,,-99.99,FreeWX-Wi 1.02,2013-03-09 18:42:00,
2013-03-09 13:47:00,53.1,15.3,30.21,North,3,3.0,5.4,22,0.00,,,-99.99,FreeWX-Wi 1.02,2013-03-09 18:47:00,
2013-03-09 13:52:00,53.8,15.8,30.21,North,6,3.0,5.8,22,0.00,,,-99.99,FreeWX-Wi 1.02,2013-03-09 18:52:00,
2013-03-09 13:57:00,54.3,16.3,30.21,North,6,3.0,5.8,22,0.00,,,-99.99,FreeWX-Wi 1.02,2013-03-09 18:57:00,
2013-03-09 14:02:00,53.6,15.6,30.21,North,9,3.0,6.3,22,0.00,,,-99.99,FreeWX-Wi 1.02,2013-03-09 19:02:00,
2013-03-09 14:07:00,55.9,16.5,30.21,North,11,3.0,4.9,21,0.00,,,-99.99,FreeWX-Wi 1.02,2013-03-09 19:07:00,
2013-03-09 14:12:00,55.4,16.2,30.21,North,9,3.0,4.5,21,0.00,,,-99.99,FreeWX-Wi 1.02,2013-03-09 19:12:00,
2013-03-09 14:17:00,55.4,16.2,30.21,North,5,3.0,5.8,21,0.00,,,-99.99,FreeWX-Wi 1.02,2013-03-09 19:17:00,
2013-03-09 14:22:00,55.0,16.9,30.21,North,6,2.0,4.0,22,0.00,,,-99.99,FreeWX-Wi 1.02,2013-03-09 19:22:00,
2013-03-09 14:27:00,53.6,15.6,30.18,North,3,2.0,5.8,22,0.00,,,-99.99,FreeWX-Wi 1.02,2013-03-09 19:27:00,
2013-03-09 14:32:00,55.0,16.9,30.18,North,3,2.0,5.4,22,0.00,,,-99.99,FreeWX-Wi 1.02,2013-03-09 19:32:00,
2013-03-09 14:37:00,55.9,16.5,30.18,North,6,2.0,4.0,21,0.00,,,-99.99,FreeWX-Wi 1.02,2013-03-09 19:37:00,
2013-03-09 14:42:00,55.0,16.9,30.18,North,2,2.0,4.9,22,0.00,,,-99.99,FreeWX-Wi 1.02,2013-03-09 19:42:00,
2013-03-09 14:47:00,52.2,14.5,30.18,North,357,2.0,4.9,22,0.00,,,-99.99,FreeWX-Wi 1.02,2013-03-09 19:47:00,
2013-03-09 14:52:00,52.5,14.7,30.18,North,353,2.0,4.0,22,0.00,,,-99.99,FreeWX-Wi 1.02,2013-03-09 19:52:00,
2013-03-09 14:57:00,51.1,14.5,30.18,North,350,2.0,4.0,23,0.00,,,-99.99,FreeWX-Wi 1.02,2013-03-09 19:57:00,
2013-03-09 15:02:00,50.2,13.8,30.18,NNW,342,2.0,3.6,23,0.00,,,-99.99,FreeWX-Wi 1.02,2013-03-09 20:02:00,
2013-03-09 15:07:00,51.1,14.5,30.18,NNW,340,2.0,4.0,23,0.00,,,-99.99,FreeWX-Wi 1.02,2013-03-09 20:07:00,
2013-03-09 15:12:00,53.4,15.6,30.21,NNW,342,2.0,4.0,22,0.00,,,-99.99,FreeWX-Wi 1.02,2013-03-09 20:12:00,
2013-03-09 15:17:00,52.9,15.1,30.21,NNW,334,1.0,4.0,22,0.00,,,-99.99,FreeWX-Wi 1.02,2013-03-09 20:17:00,
2013-03-09 15:22:00,54.9,16.7,30.21,NNW,328,2.0,3.6,22,0.00,,,-99.99,FreeWX-Wi 1.02,2013-03-09 20:22:00,
2013-03-09 15:27:00,55.4,16.2,30.21,NNW,328,2.0,4.0,21,0.00,,,-99.99,FreeWX-Wi 1.02,2013-03-09 20:27:00,
2013-03-09 15:32:00,53.8,15.8,30.21,NW,323,1.0,3.6,22,0.00,,,-99.99,FreeWX-Wi 1.02,2013-03-09 20:32:00,
2013-03-09 15:37:00,51.1,14.5,30.21,NW,323,1.0,4.0,23,0.00,,,-99.99,FreeWX-Wi 1.02,2013-03-09 20:37:00,
2013-03-09 15:42:00,50.2,13.8,30.21,NW,319,1.0,4.0,23,0.00,,,-99.99,FreeWX-Wi 1.02,2013-03-09 20:42:00,
2013-03-09 15:47:00,50.4,14.0,30.21,NW,324,1.0,3.6,23,0.00,,,-99.99,FreeWX-Wi 1.02,2013-03-09 20:47:00,
2013-03-09 15:52:00,50.2,13.8,30.21,NW,324,1.0,3.1,23,0.00,,,-99.99,FreeWX-Wi 1.02,2013-03-09 20:52:00,
2013-03-09 15:57:00,49.5,13.3,30.21,NW,321,1.0,4.0,23,0.00,,,-99.99,FreeWX-Wi 1.02,2013-03-09 20:57:00,
2013-03-09 16:02:00,49.5,13.3,30.21,NW,321,1.0,3.1,23,0.00,,,-99.99,FreeWX-Wi 1.02,2013-03-09 21:02:00,
2013-03-09 16:07:00,49.8,13.5,30.21,NW,319,1.0,4.0,23,0.00,,,-99.99,FreeWX-Wi 1.02,2013-03-09 21:07:00,
2013-03-09 16:12:00,50.2,13.8,30.21,NW,316,1.0,4.0,23,0.00,,,-99.99,FreeWX-Wi 1.02,2013-03-09 21:12:00,
2013-03-09 16:17:00,50.9,14.4,30.21,NW,318,1.0,3.6,23,0.00,,,-99.99,FreeWX-Wi 1.02,2013-03-09 21:17:00,
2013-03-09 16:22:00,50.5,14.2,30.21,NW,320,1.0,3.6,23,0.00,,,-99.99,FreeWX-Wi 1.02,2013-03-09 21:22:00,
2013-03-09 16:27:00,49.1,12.9,30.24,NW,324,1.0,3.6,23,0.00,,,-99.99,FreeWX-Wi 1.02,2013-03-09 21:27:00,
2013-03-09 16:32:00,48.6,12.4,30.24,NW,324,1.0,0.0,23,0.00,,,-99.99,FreeWX-Wi 1.02,2013-03-09 21:32:00,
2013-03-09 16:37:00,48.2,12.2,30.24,North,-999,0.0,0.0,23,0.00,,,-99.99,FreeWX-Wi 1.02,2013-03-09 21:37:00,
2013-03-09 16:42:00,48.2,12.2,30.24,North,-999,0.0,0.0,23,0.00,,,-99.99,FreeWX-Wi 1.02,2013-03-09 21:42:00,
2013-03-09 16:47:00,48.2,12.2,30.24,North,-999,0.0,2.7,23,0.00,,,-99.99,FreeWX-Wi 1.02,2013-03-09 21:47:00,
2013-03-09 16:52:00,47.7,11.7,30.24,North,-999,0.0,2.7,23,0.00,,,-99.99,FreeWX-Wi 1.02,2013-03-09 21:52:00,
2013-03-09 16:57:00,47.3,11.5,30.24,North,-999,0.0,0.0,23,0.00,,,-99.99,FreeWX-Wi 1.02,2013-03-09 21:57:00,
2013-03-09 17:02:00,47.3,11.5,30.24,North,-999,0.0,0.0,23,0.00,,,-99.99,FreeWX-Wi 1.02,2013-03-09 22:02:00,
2013-03-09 17:07:00,47.3,11.5,30.24,North,-999,0.0,0.0,23,0.00,,,-99.99,FreeWX-Wi 1.02,2013-03-09 22:07:00,
2013-03-09 17:12:00,47.1,11.3,30.24,North,-999,0.0,0.0,23,0.00,,,-99.99,FreeWX-Wi 1.02,2013-03-09 22:12:00,
2013-03-09 17:17:00,47.1,11.3,30.24,North,-999,0.0,0.0,23,0.00,,,-99.99,FreeWX-Wi 1.02,2013-03-09 22:17:00,
2013-03-09 17:22:00,46.8,10.9,30.24,North,-999,0.0,0.0,23,0.00,,,-99.99,FreeWX-Wi 1.02,2013-03-09 22:22:00,
2013-03-09 17:27:00,46.4,10.6,30.24,North,-999,0.0,0.0,23,0.00,,,-99.99,FreeWX-Wi 1.02,2013-03-09 22:27:00,
2013-03-09 17:32:00,46.4,10.6,30.24,North,-999,0.0,0.0,23,0.00,,,-99.99,FreeWX-Wi 1.02,2013-03-09 22:32:00,
2013-03-09 17:37:00,46.2,11.5,30.24,North,-999,0.0,0.0,24,0.00,,,-99.99,FreeWX-Wi 1.02,2013-03-09 22:37:00,
2013-03-09 17:42:00,46.0,11.3,30.24,North,-999,0.0,0.0,24,0.00,,,-99.99,FreeWX-Wi 1.02,2013-03-09 22:42:00,
2013-03-09 17:47:00,45.7,10.9,30.24,North,-999,0.0,0.0,24,0.00,,,-99.99,FreeWX-Wi 1.02,2013-03-09 22:47:00,
2013-03-09 17:52:00,45.5,10.8,30.24,North,-999,0.0,0.0,24,0.00,,,-99.99,FreeWX-Wi 1.02,2013-03-09 22:52:00,
2013-03-09 17:57:00,45.3,10.8,30.24,North,-999,0.0,2.7,24,0.00,,,-99.99,FreeWX-Wi 1.02,2013-03-09 22:57:00,
2013-03-09 18:02:00,44.8,10.2,30.24,North,-999,0.0,3.1,24,0.00,,,-99.99,FreeWX-Wi 1.02,2013-03-09 23:02:00,
2013-03-09 18:07:00,43.9,9.5,30.24,North,-999,0.0,0.0,24,0.00,,,-99.99,FreeWX-Wi 1.02,2013-03-09 23:07:00,
2013-03-09 18:12:00,42.8,8.6,30.24,North,-999,0.0,3.6,24,0.00,,,-99.99,FreeWX-Wi 1.02,2013-03-09 23:12:00,
2013-03-09 18:17:00,42.1,8.8,30.24,North,-999,0.0,3.1,25,0.00,,,-99.99,FreeWX-Wi 1.02,2013-03-09 23:17:00,
2013-03-09 18:22:00,41.4,8.2,30.24,North,-999,0.0,0.0,25,0.00,,,-99.99,FreeWX-Wi 1.02,2013-03-09 23:22:00,
2013-03-09 18:27:00,40.5,7.5,30.27,North,-999,0.0,0.0,25,0.00,,,-99.99,FreeWX-Wi 1.02,2013-03-09 23:27:00,
2013-03-09 18:32:00,39.7,6.8,30.27,North,-999,0.0,0.0,25,0.00,,,-99.99,FreeWX-Wi 1.02,2013-03-09 23:32:00,
2013-03-09 18:37:00,39.4,6.4,30.27,North,-999,0.0,2.2,25,0.00,,,-99.99,FreeWX-Wi 1.02,2013-03-09 23:37:00,
2013-03-09 18:42:00,39.0,6.3,30.27,North,-999,0.0,2.7,25,0.00,,,-99.99,FreeWX-Wi 1.02,2013-03-09 23:42:00,
2013-03-09 18:47:00,38.7,5.9,30.27,North,-999,0.0,3.1,25,0.00,,,-99.99,FreeWX-Wi 1.02,2013-03-09 23:47:00,
2013-03-09 18:52:00,38.5,6.6,30.27,North,-999,0.0,0.0,26,0.00,,,-99.99,FreeWX-Wi 1.02,2013-03-09 23:52:00,
2013-03-09 19:00:00,37.9,6.1,30.27,North,-999,0.0,0.0,26,0.00,,,-99.99,FreeWX-Wi 1.02,2013-03-10 00:00:00,
2013-03-09 19:05:00,37.6,8.2,30.27,North,-999,0.0,0.0,29,0.00,,,-99.99,FreeWX-Wi 1.02,2013-03-10 00:05:00,
2013-03-09 19:10:00,37.2,7.9,30.27,North,-999,0.0,0.0,29,0.00,,,-99.99,FreeWX-Wi 1.02,2013-03-10 00:10:00,
2013-03-09 19:15:00,36.9,7.7,30.27,North,-999,0.0,0.0,29,0.00,,,-99.99,FreeWX-Wi 1.02,2013-03-10 00:15:00,
2013-03-09 19:20:00,36.1,9.1,30.27,North,-999,0.0,0.0,32,0.00,,,-99.99,FreeWX-Wi 1.02,2013-03-10 00:20:00,
2013-03-09 19:25:00,36.0,12.2,30.27,North,-999,0.0,0.0,37,0.00,,,-99.99,FreeWX-Wi 1.02,2013-03-10 00:25:00,
2013-03-09 19:30:00,35.8,14.9,30.27,North,-999,0.0,3.6,42,0.00,,,-99.99,FreeWX-Wi 1.02,2013-03-10 00:30:00,
2013-03-09 19:35:00,35.6,16.3,30.27,North,-999,0.0,2.7,45,0.00,,,-99.99,FreeWX-Wi 1.02,2013-03-10 00:35:00,
2013-03-09 19:40:00,35.8,16.5,30.27,North,-999,0.0,0.0,45,0.00,,,-99.99,FreeWX-Wi 1.02,2013-03-10 00:40:00,
2013-03-09 19:45:00,36.0,16.7,30.27,North,-999,0.0,0.0,45,0.00,,,-99.99,FreeWX-Wi 1.02,2013-03-10 00:45:00,
2013-03-09 19:50:00,36.1,16.9,30.27,North,-999,0.0,0.0,45,0.00,,,-99.99,FreeWX-Wi 1.02,2013-03-10 00:50:00,
2013-03-09 19:55:00,36.1,16.9,30.30,North,-999,0.0,2.7,45,0.00,,,-99.99,FreeWX-Wi 1.02,2013-03-10 00:55:00,
2013-03-09 20:00:00,36.1,17.4,30.30,North,-999,0.0,3.1,46,0.00,,,-99.99,FreeWX-Wi 1.02,2013-03-10 01:00:00,
2013-03-09 20:06:00,36.0,17.2,30.30,North,-999,0.0,0.0,46,0.00,,,-99.99,FreeWX-Wi 1.02,2013-03-10 01:06:00,
2013-03-09 20:11:00,35.6,17.4,30.30,North,-999,0.0,2.7,47,0.00,,,-99.99,FreeWX-Wi 1.02,2013-03-10 01:11:00,
2013-03-09 20:16:00,35.4,17.8,30.30,North,-999,0.0,0.0,48,0.00,,,-99.99,FreeWX-Wi 1.02,2013-03-10 01:16:00,
2013-03-09 20:21:00,35.4,18.7,30.30,North,-999,0.0,0.0,50,0.00,,,-99.99,FreeWX-Wi 1.02,2013-03-10 01:21:00,
2013-03-09 20:26:00,35.2,18.5,30.30,North,-999,0.0,0.0,50,0.00,,,-99.99,FreeWX-Wi 1.02,2013-03-10 01:26:00,
2013-03-09 20:31:00,34.9,18.1,30.30,North,-999,0.0,0.0,50,0.00,,,-99.99,FreeWX-Wi 1.02,2013-03-10 01:31:00,
2013-03-09 20:36:00,34.5,17.8,30.30,North,-999,0.0,0.0,50,0.00,,,-99.99,FreeWX-Wi 1.02,2013-03-10 01:36:00,
2013-03-09 20:41:00,34.3,18.5,30.30,North,-999,0.0,0.0,52,0.00,,,-99.99,FreeWX-Wi 1.02,2013-03-10 01:41:00,
2013-03-09 20:46:00,34.5,20.5,30.30,North,-999,0.0,0.0,56,0.00,,,-99.99,FreeWX-Wi 1.02,2013-03-10 01:46:00,
2013-03-09 20:51:00,34.0,19.9,30.30,North,-999,0.0,0.0,56,0.00,,,-99.99,FreeWX-Wi 1.02,2013-03-10 01:51:00,
2013-03-09 20:56:00,34.0,19.9,30.30,North,-999,0.0,0.0,56,0.00,,,-99.99,FreeWX-Wi 1.02,2013-03-10 01:56:00,
2013-03-09 21:01:00,33.8,19.8,30.30,North,-999,0.0,0.0,56,0.00,,,-99.99,FreeWX-Wi 1.02,2013-03-10 02:01:00,
2013-03-09 21:06:00,33.6,19.6,30.30,North,-999,0.0,0.0,56,0.00,,,-99.99,FreeWX-Wi 1.02,2013-03-10 02:06:00,
2013-03-09 21:11:00,33.1,19.0,30.33,North,-999,0.0,0.0,56,0.00,,,-99.99,FreeWX-Wi 1.02,2013-03-10 02:11:00,
2013-03-09 21:16:00,32.9,19.4,30.33,North,-999,0.0,0.0,57,0.00,,,-99.99,FreeWX-Wi 1.02,2013-03-10 02:16:00,
2013-03-09 21:21:00,32.4,19.2,30.33,North,-999,0.0,0.0,58,0.00,,,-99.99,FreeWX-Wi 1.02,2013-03-10 02:21:00,
2013-03-09 21:26:00,32.0,18.9,30.30,North,-999,0.0,0.0,58,0.00,,,-99.99,FreeWX-Wi 1.02,2013-03-10 02:26:00,
2013-03-09 21:31:00,31.8,18.7,30.30,North,-999,0.0,0.0,58,0.00,,,-99.99,FreeWX-Wi 1.02,2013-03-10 02:31:00,
2013-03-09 21:36:00,31.3,18.3,30.30,North,-999,0.0,0.0,58,0.00,,,-99.99,FreeWX-Wi 1.02,2013-03-10 02:36:00,
2013-03-09 21:41:00,31.1,18.1,30.30,North,-999,0.0,0.0,58,0.00,,,-99.99,FreeWX-Wi 1.02,2013-03-10 02:41:00,
2013-03-09 21:46:00,30.9,18.3,30.30,North,-999,0.0,0.0,59,0.00,,,-99.99,FreeWX-Wi 1.02,2013-03-10 02:46:00,
2013-03-09 21:51:00,30.4,17.8,30.30,North,-999,0.0,0.0,59,0.00,,,-99.99,FreeWX-Wi 1.02,2013-03-10 02:51:00,
2013-03-09 21:56:00,30.4,18.1,30.30,North,-999,0.0,0.0,60,0.00,,,-99.99,FreeWX-Wi 1.02,2013-03-10 02:56:00,
2013-03-09 22:01:00,30.6,19.9,30.30,North,-999,0.0,0.0,64,0.00,,,-99.99,FreeWX-Wi 1.02,2013-03-10 03:01:00,
2013-03-09 22:06:00,30.2,20.3,30.30,North,-999,0.0,0.0,66,0.00,,,-99.99,FreeWX-Wi 1.02,2013-03-10 03:06:00,
2013-03-09 22:11:00,30.0,20.5,30.30,North,-999,0.0,0.0,67,0.00,,,-99.99,FreeWX-Wi 1.02,2013-03-10 03:11:00,
2013-03-09 22:16:00,29.5,19.9,30.30,North,-999,0.0,0.0,67,0.00,,,-99.99,FreeWX-Wi 1.02,2013-03-10 03:16:00,
2013-03-09 22:21:00,29.5,19.9,30.30,North,-999,0.0,0.0,67,0.00,,,-99.99,FreeWX-Wi 1.02,2013-03-10 03:21:00,
2013-03-09 22:26:00,29.5,19.9,30.30,North,-999,0.0,0.0,67,0.00,,,-99.99,FreeWX-Wi 1.02,2013-03-10 03:26:00,
2013-03-09 22:31:00,29.7,20.5,30.30,North,-999,0.0,0.0,68,0.00,,,-99.99,FreeWX-Wi 1.02,2013-03-10 03:31:00,
2013-03-09 22:36:00,29.5,20.3,30.30,North,-999,0.0,0.0,68,0.00,,,-99.99,FreeWX-Wi 1.02,2013-03-10 03:36:00,
2013-03-09 22:41:00,29.1,20.3,30.33,North,-999,0.0,0.0,69,0.00,,,-99.99,FreeWX-Wi 1.02,2013-03-10 03:41:00,
2013-03-09 22:46:00,29.1,20.3,30.33,North,-999,0.0,0.0,69,0.00,,,-99.99,FreeWX-Wi 1.02,2013-03-10 03:46:00,
2013-03-09 22:51:00,29.3,20.8,30.33,North,-999,0.0,0.0,70,0.00,,,-99.99,FreeWX-Wi 1.02,2013-03-10 03:51:00,
2013-03-09 22:56:00,29.1,20.7,30.33,North,-999,0.0,0.0,70,0.00,,,-99.99,FreeWX-Wi 1.02,2013-03-10 03:56:00,
2013-03-09 23:01:00,29.5,21.2,30.33,North,-999,0.0,0.0,71,0.00,,,-99.99,FreeWX-Wi 1.02,2013-03-10 04:01:00,
2013-03-09 23:06:00,29.3,21.0,30.33,North,-999,0.0,0.0,71,0.00,,,-99.99,FreeWX-Wi 1.02,2013-03-10 04:06:00,
2013-03-09 23:11:00,28.9,21.0,30.33,North,-999,0.0,0.0,72,0.00,,,-99.99,FreeWX-Wi 1.02,2013-03-10 04:11:00,
2013-03-09 23:16:00,28.4,20.5,30.33,North,-999,0.0,0.0,72,0.00,,,-99.99,FreeWX-Wi 1.02,2013-03-10 04:16:00,
2013-03-09 23:21:00,28.4,21.2,30.33,North,-999,0.0,0.0,74,0.00,,,-99.99,FreeWX-Wi 1.02,2013-03-10 04:21:00,
2013-03-09 23:26:00,28.2,21.0,30.33,North,-999,0.0,0.0,74,0.00,,,-99.99,FreeWX-Wi 1.02,2013-03-10 04:26:00,
2013-03-09 23:31:00,28.2,21.0,30.33,North,-999,0.0,0.0,74,0.00,,,-99.99,FreeWX-Wi 1.02,2013-03-10 04:31:00,
2013-03-09 23:36:00,28.2,21.6,30.33,North,-999,0.0,0.0,76,0.00,,,-99.99,FreeWX-Wi 1.02,2013-03-10 04:36:00,
2013-03-09 23:41:00,27.9,21.4,30.33,North,-999,0.0,0.0,76,0.00,,,-99.99,FreeWX-Wi 1.02,2013-03-10 04:41:00,
2013-03-09 23:46:00,27.9,21.6,30.33,North,-999,0.0,0.0,77,0.00,,,-99.99,FreeWX-Wi 1.02,2013-03-10 04:46:00,
2013-03-09 23:51:00,27.9,21.6,30.33,North,-999,0.0,0.0,77,0.00,,,-99.99,FreeWX-Wi 1.02,2013-03-10 04:51:00,
2013-03-09 23:56:00,28.2,22.6,30.33,North,-999,0.0,0.0,79,0.00,,,-99.99,FreeWX-Wi 1.02,2013-03-10 04:56:00,